Home > Weather > Whitehorse > Past weeks

Flag for Canada Weather for the Past 2 Weeks in Whitehorse, Yukon, Canada

Now
34 °F

Partly sunny.


Feels Like: 24 °F
Forecast: 19 / 28 °F
Wind: 14 mph from South

Location: Whitehorse

Current Time: Feb 11, 2016 at 5:49:52 PM

Latest Report: Feb 11, 2016 at 5:00 PM


Visibility: 40 mi

Pressure: 30.00 "Hg (27.70 "Hg at 640m altitude)

Humidity: 81%

Dew point: 28 °F

Location of WhitehorseLocation

Historic Weather in Whitehorse — Graph

°F

Whitehorse Temperature Yesterday

Maximum temperature yesterday: 30 °F (at 5:00 PM)
Minimum temperature yesterday: 14 °F (at 12:00 AM)
Average temperature yesterday: 23 °F

High & Low Weather Summary for the Past Weeks

 TemperatureHumidityPressure
High36 °F (Jan 27, 4:00 PM)93% (Jan 28, 3:00 AM)30.28 "Hg (Jan 28, 3:00 AM)
Low1 °F (Feb 7, 5:00 AM)69% (Jan 28, 11:00 PM)29.12 "Hg (Jan 28, 6:00 AM)
Average20 °F86%29.83 "Hg
* Reported Jan 27 4:00 PM — Feb 11 4:00 PM, Whitehorse, Weather by CustomWeather, © 2016

Note: Actual official high and low records may vary slightly from our data, if they occured in-between our weather recording intervals... More about our weather records

Advertising

Whitehorse Weather History for the Previous 24 Hours

 ConditionsComfort  
Time TempWeatherWind HumidityBarometerVisibility
4:00 PM
Thu, Feb 11
34 °FBroken clouds.3 mph81%30.01 "Hg40 mi
3:00 PM36 °FScattered clouds.15 mph75%30.00 "Hg40 mi
1:00 PM34 °FScattered clouds.20 mph81%30.02 "Hg40 mi
12:00 PM34 °FLow level haze.23 mph75%30.02 "Hg40 mi
11:00 AM32 °FScattered clouds.24 mph80%30.01 "Hg40 mi
10:00 AM30 °FScattered clouds.25 mph86%29.99 "Hg40 mi
9:00 AM28 °FScattered clouds.17 mph86%29.99 "Hg40 mi
8:00 AM28 °FPassing clouds.23 mph93%29.96 "Hg15 mi
7:00 AM28 °FPassing clouds.18 mph86%29.96 "Hg15 mi
6:00 AM28 °FPassing clouds.10 mph93%29.95 "Hg15 mi
5:00 AM28 °FPassing clouds.17 mph93%29.93 "Hg15 mi
4:00 AM30 °FPassing clouds.22 mph86%29.91 "Hg15 mi
3:00 AM30 °FPassing clouds.20 mph93%29.89 "Hg15 mi
2:00 AM28 °FPartly cloudy.22 mph86%29.87 "Hg15 mi
1:00 AM28 °FLight snow. Mostly cloudy.18 mph86%29.85 "Hg15 mi
12:00 AM27 °FPassing clouds.13 mph93%29.85 "Hg15 mi
11:00 PM
Wed, Feb 10
28 °FOvercast.13 mph86%29.83 "Hg15 mi
10:00 PM28 °FMostly cloudy.15 mph86%29.82 "Hg15 mi
9:00 PM28 °FOvercast.17 mph86%29.81 "Hg15 mi
8:00 PM28 °FMostly cloudy.16 mph86%29.82 "Hg15 mi
7:00 PM28 °FMostly cloudy.14 mph86%29.81 "Hg15 mi
6:00 PM30 °FPartly cloudy.18 mph80%29.82 "Hg20 mi
5:00 PM30 °FBroken clouds.20 mph80%29.83 "Hg20 mi
Weather by CustomWeather, © 2016

See weather overviewHow to use our weather pages